Wind_Speed
25 26 27 28 29 30 31 33 34 34 34 37 39 39 38 38 39 40 40 41 42 43 43 43 43 44 44 43 43 43 43 43 44 44 43 43 42 41 41 40 39 38 38 38
26 27 27 28 29 30 31 33 33 34 34 36 39 38 36 36 38 39 39 40 41 42 43 43 43 44 45 45 44 45 45 44 44 44 45 45 45 44 43 43 42 40 40 40
27 26 27 28 29 30 31 32 34 35 34 35 37 37 35 35 37 39 40 40 40 41 42 43 44 44 45 45 45 45 45 45 45 45 46 47 46 45 44 43 42 42 42 42
28 28 28 29 30 32 33 33 35 36 36 35 35 37 34 34 36 38 38 39 40 40 40 41 42 44 44 45 45 45 46 46 47 47 47 47 47 46 45 44 44 44 44 44
29 29 30 31 31 33 34 34 35 36 38 38 35 38 33 33 35 35 35 36 38 39 40 40 40 42 43 44 45 45 45 46 47 47 47 47 47 47 46 46 45 45 45 45
30 31 32 31 31 33 34 34 35 36 38 38 35 37 33 32 33 34 35 36 37 38 39 39 40 41 42 43 44 44 45 46 46 47 47 47 47 48 48 47 46 46 46 47
30 31 31 32 32 32 33 34 36 38 38 38 35 37 34 33 34 35 36 37 37 38 38 39 40 41 41 42 43 44 46 47 47 48 48 48 48 49 49 49 48 47 47 47
30 30 30 31 31 32 32 34 36 38 40 40 38 38 35 35 35 37 38 38 38 38 39 40 41 41 42 42 43 45 46 47 48 48 48 48 49 50 50 50 49 49 48 48
32 32 31 31 32 33 34 34 35 39 41 43 41 40 38 37 37 37 38 39 39 40 41 41 41 42 42 43 43 45 46 47 49 49 49 49 49 50 50 51 50 50 50 50
33 34 32 33 33 34 35 35 36 38 41 43 43 41 40 37 37 38 38 39 40 41 41 42 42 43 43 43 44 45 47 48 49 49 50 50 50 51 51 51 50 50 51 52
33 34 33 33 33 34 35 36 37 38 40 42 43 41 39 39 39 39 39 40 41 41 42 42 42 42 43 43 43 45 47 49 50 50 50 50 50 51 51 51 51 52 52 52
34 36 35 34 34 35 36 36 37 38 39 41 44 43 37 39 40 41 42 41 42 43 43 44 44 44 43 43 43 44 46 48 49 50 51 51 51 52 52 51 52 52 53 53
36 37 37 36 35 36 37 37 38 40 42 43 45 45 39 40 41 42 43 43 43 43 43 44 44 44 44 44 44 44 45 47 48 49 50 50 51 51 52 52 52 52 53 54
38 39 39 38 37 38 39 38 39 41 43 44 43 43 40 40 41 42 42 43 43 43 43 43 44 45 45 45 45 45 45 46 47 48 49 50 51 51 52 53 53 53 54 54
40 40 40 40 39 40 41 41 41 42 44 45 43 42 39 39 40 41 41 43 44 45 45 45 45 45 45 45 45 45 45 46 47 47 49 50 51 51 52 53 54 54 55 55
41 42 42 41 40 42 43 41 41 42 43 44 44 42 38 40 41 42 41 42 44 45 44 44 45 45 45 45 44 44 45 46 47 47 48 49 50 52 53 52 52 53 54 54
41 41 42 42 41 44 44 39 40 42 42 43 44 40 39 41 41 42 43 42 42 42 42 42 42 43 44 44 44 44 44 45 46 47 48 49 50 51 52 53 52 52 53 53
40 40 42 43 42 45 41 39 39 41 41 41 42 41 41 42 42 42 43 43 42 42 41 41 42 42 43 44 44 44 44 45 46 47 47 49 50 51 51 52 52 51 51 52
39 40 42 43 44 45 40 39 40 41 41 39 40 40 41 42 42 41 42 43 42 42 41 41 42 42 43 44 45 45 44 44 45 46 47 48 49 50 50 51 51 50 50 50
39 39 41 42 44 46 41 40 40 41 41 39 40 40 40 41 42 40 41 41 42 42 42 41 41 41 42 43 44 44 44 43 43 44 45 46 47 48 48 49 49 49 48 48
39 39 40 42 44 45 40 39 39 40 40 39 39 40 40 40 41 41 40 40 42 42 43 43 42 41 41 41 42 42 43 43 42 42 43 44 45 46 46 47 48 48 48 48
39 40 40 41 43 42 38 39 39 39 39 39 39 41 41 41 41 40 40 40 41 42 42 42 42 41 41 40 41 41 41 42 41 41 42 42 43 43 44 44 45 46 47 48
39 39 40 42 42 41 40 39 38 39 39 39 40 41 42 42 41 40 40 40 40 40 40 40 40 40 40 40 40 40 40 41 41 40 40 40 41 42 43 44 44 44 44 44
39 39 41 43 42 41 41 40 41 41 41 41 42 42 42 42 41 41 40 39 39 39 38 38 38 37 37 37 38 38 38 39 39 39 38 38 39 39 40 41 42 42 43 44
39 40 42 44 42 42 41 41 42 42 42 42 41 42 42 42 41 40 39 38 37 37 37 37 37 36 36 36 35 36 36 36 37 37 37 36 37 38 38 39 41 41 41 41
39 41 43 44 42 44 43 42 43 43 42 42 42 42 41 41 40 39 39 37 36 36 36 36 35 34 34 34 34 34 35 35 36 36 36 36 37 37 38 39 39 40 40 41
Wind_Direction
271 271 272 269 265 265 266 266 266 265 265 265 264 263 263 261 259 259 259 258 257 257 258 258 257 256 255 254 253 253 254 253 254 253 253 252 252 252 253 253 256 258 259 260
273 275 273 271 267 267 268 268 268 267 267 269 267 266 264 262 261 260 260 259 258 258 259 257 256 256 256 255 253 253 253 253 253 253 252 251 251 252 253 254 256 258 260 261
275 274 274 273 270 269 271 272 270 271 269 270 271 268 265 263 261 262 262 261 261 260 260 258 257 257 256 256 255 254 254 253 253 253 252 251 251 252 253 254 257 258 259 261
274 273 272 273 273 272 273 273 273 272 272 272 273 273 267 266 265 264 263 263 264 263 261 259 258 257 257 256 256 255 254 253 253 253 252 252 252 252 253 254 257 257 259 261
275 274 273 274 274 274 274 273 272 273 273 272 273 275 271 268 268 267 266 266 265 265 264 263 261 260 258 256 255 254 254 253 252 252 252 252 251 252 252 254 256 258 259 261
276 274 273 273 274 274 274 273 273 273 273 272 273 275 273 271 272 271 269 267 265 265 265 266 265 262 259 256 255 255 254 253 252 252 252 252 251 251 252 255 257 258 259 260
277 275 275 274 274 273 275 274 275 275 275 274 274 274 275 274 273 272 271 269 266 264 264 265 265 264 261 258 256 255 254 253 251 252 251 252 252 251 253 255 257 258 259 260
280 277 274 274 274 274 275 276 275 277 277 276 274 273 276 276 274 273 273 271 269 266 265 265 266 265 263 261 259 257 255 253 252 252 252 253 253 253 253 255 257 258 258 259
282 279 276 274 274 274 274 274 275 276 276 276 275 274 275 276 276 275 274 272 270 269 268 267 265 265 265 263 259 258 256 254 253 254 254 254 254 254 254 255 257 258 258 259
282 280 278 276 274 273 273 274 275 275 276 278 278 278 277 277 277 276 276 274 273 272 270 268 267 266 265 264 260 258 258 256 255 255 254 254 255 255 256 256 257 258 258 259
282 282 281 278 277 276 274 274 274 275 276 277 279 279 279 280 279 279 277 275 273 270 268 267 268 267 265 263 262 261 260 258 257 255 254 254 254 255 256 256 257 258 258 259
281 281 281 281 279 277 276 274 275 275 276 277 277 278 281 281 280 278 278 276 274 272 270 269 269 268 266 264 262 262 261 259 258 257 256 255 255 256 256 257 257 258 259 259
279 281 282 282 280 278 277 276 275 275 275 277 278 280 283 284 282 280 278 277 276 275 273 272 270 269 268 267 265 263 261 259 258 258 257 256 257 257 258 258 258 259 260 261
278 279 280 281 282 280 278 276 275 274 276 278 279 281 281 283 283 282 279 277 276 275 274 273 271 269 268 269 268 265 262 261 259 258 257 257 258 259 259 260 259 259 260 261
279 279 279 279 279 278 276 276 276 276 277 279 280 280 282 283 282 282 280 279 278 277 275 274 273 271 269 269 269 266 264 262 261 260 258 257 258 259 259 259 260 260 260 261
279 280 280 278 278 277 276 276 278 278 278 278 279 280 282 281 281 281 281 280 279 278 277 275 273 271 269 269 268 266 263 262 262 262 260 259 259 259 259 260 260 261 261 262
279 280 280 279 278 277 278 282 281 280 279 279 280 282 282 280 281 282 281 280 280 279 278 276 275 273 270 267 266 266 265 263 263 262 261 261 261 261 260 260 261 261 261 262
280 280 280 281 280 280 285 284 283 282 281 281 282 282 281 282 283 284 283 281 279 279 277 275 274 272 269 266 265 264 265 265 263 263 262 262 261 261 261 260 261 262 262 262
279 279 280 282 283 284 285 287 286 285 283 283 283 282 282 283 284 285 283 281 280 279 278 276 275 273 270 268 266 265 265 265 264 264 264 264 263 261 261 260 261 262 262 261
277 278 279 282 284 285 289 289 287 285 285 285 284 285 286 286 286 285 282 281 280 278 278 278 277 275 271 268 266 266 267 266 265 264 264 265 264 263 262 260 259 260 261 262
278 278 280 282 283 285 290 289 287 286 287 285 285 286 287 288 288 287 284 282 281 280 279 278 277 276 273 270 268 267 267 266 266 265 264 263 264 263 263 261 259 260 260 261
279 280 282 283 283 288 289 287 286 287 285 285 285 285 286 288 288 287 285 283 281 280 280 279 277 276 274 272 271 269 268 267 267 268 266 264 263 263 263 263 262 261 263 264
279 281 282 282 283 286 285 285 285 285 285 285 285 285 286 286 286 285 284 282 281 280 280 279 278 277 275 273 272 271 271 269 268 269 267 265 264 264 263 263 263 264 264 263
279 279 280 281 282 284 284 284 284 283 283 283 284 285 286 286 286 283 282 281 280 279 278 279 278 277 275 274 273 273 272 271 270 270 269 267 265 265 264 264 264 264 264 264
279 279 278 279 282 282 283 283 283 282 283 284 284 284 283 284 284 284 282 280 280 278 278 278 277 276 276 276 274 273 272 270 270 270 270 268 267 266 265 264 265 265 264 264
278 277 278 280 282 282 283 283 282 282 282 282 283 283 282 282 283 282 282 280 279 279 280 278 278 277 275 274 275 273 271 271 270 269 269 269 269 267 266 265 264 264 264 264
Height
5701 5702 5702 5702 5702 5703 5703 5704 5705 5707 5707 5706 5707 5709 5713 5714 5714 5715 5717 5719 5721 5722 5725 5726 5728 5730 5732 5735 5737 5740 5742 5745 5747 5749 5753 5756 5759 5761 5764 5766 5767 5769 5770 5771
5697 5697 5697 5696 5696 5696 5696 5696 5697 5698 5699 5698 5698 5700 5703 5704 5705 5706 5707 5709 5711 5712 5713 5715 5717 5719 5721 5724 5727 5729 5732 5735 5737 5740 5743 5746 5749 5751 5754 5756 5758 5760 5761 5763
5691 5692 5690 5690 5690 5690 5690 5689 5689 5690 5691 5691 5690 5692 5695 5697 5696 5697 5698 5699 5701 5702 5703 5705 5707 5708 5710 5713 5716 5719 5721 5724 5727 5730 5732 5735 5738 5741 5745 5747 5749 5750 5751 5753
5685 5685 5685 5684 5684 5683 5683 5683 5682 5682 5682 5683 5683 5681 5688 5688 5688 5688 5689 5690 5691 5692 5693 5694 5696 5697 5700 5702 5705 5708 5710 5713 5716 5719 5721 5724 5728 5731 5735 5737 5739 5740 5741 5743
5679 5678 5678 5678 5678 5676 5676 5676 5675 5674 5674 5674 5676 5673 5679 5679 5679 5680 5681 5681 5681 5682 5683 5684 5685 5687 5688 5691 5694 5696 5699 5702 5705 5707 5710 5713 5717 5721 5724 5726 5728 5729 5731 5733
5673 5672 5671 5672 5671 5670 5669 5668 5668 5667 5666 5667 5669 5666 5669 5671 5671 5671 5672 5672 5672 5673 5673 5674 5675 5676 5677 5680 5683 5685 5687 5691 5693 5696 5699 5702 5705 5709 5711 5714 5716 5718 5720 5722
5665 5665 5664 5664 5663 5663 5662 5661 5660 5658 5658 5659 5661 5659 5662 5664 5663 5662 5663 5663 5664 5664 5664 5665 5666 5666 5668 5669 5672 5674 5676 5679 5682 5684 5687 5690 5693 5696 5699 5702 5704 5706 5708 5710
5657 5658 5657 5656 5656 5656 5655 5654 5654 5652 5650 5651 5652 5651 5655 5655 5654 5654 5654 5654 5654 5655 5655 5655 5656 5657 5658 5660 5661 5663 5665 5668 5671 5673 5676 5678 5681 5684 5687 5689 5692 5694 5696 5699
5649 5650 5650 5649 5649 5648 5647 5647 5646 5644 5641 5640 5642 5644 5647 5647 5646 5645 5645 5644 5644 5644 5645 5645 5646 5646 5647 5649 5650 5652 5654 5657 5659 5661 5664 5666 5669 5671 5674 5677 5679 5681 5684 5685
5642 5642 5643 5642 5642 5641 5641 5639 5638 5636 5633 5631 5633 5635 5637 5637 5636 5635 5635 5634 5634 5634 5634 5634 5634 5635 5636 5637 5639 5640 5642 5645 5647 5649 5651 5654 5656 5659 5661 5663 5666 5668 5670 5672
5634 5633 5634 5634 5634 5633 5633 5632 5629 5627 5626 5624 5622 5628 5628 5627 5626 5625 5624 5623 5623 5623 5623 5623 5623 5624 5624 5626 5627 5628 5630 5632 5634 5636 5638 5641 5643 5645 5648 5650 5652 5654 5656 5658
5626 5624 5625 5626 5626 5624 5623 5623 5621 5620 5618 5615 5612 5617 5620 5618 5616 5615 5613 5612 5611 5611 5611 5611 5612 5612 5612 5614 5615 5616 5617 5619 5621 5623 5626 5628 5630 5632 5634 5637 5639 5641 5642 5644
5617 5616 5615 5616 5618 5616 5614 5613 5611 5609 5608 5605 5603 5607 5610 5608 5605 5603 5602 5601 5600 5599 5599 5599 5599 5600 5600 5602 5603 5604 5605 5606 5608 5610 5612 5614 5616 5618 5620 5622 5625 5626 5628 5629
5608 5607 5608 5607 5606 5604 5603 5603 5601 5599 5597 5595 5595 5595 5599 5596 5593 5592 5591 5589 5588 5587 5587 5587 5586 5587 5588 5589 5590 5591 5592 5594 5595 5597 5598 5601 5603 5604 5606 5608 5610 5612 5613 5614
5598 5598 5597 5597 5596 5595 5593 5593 5592 5589 5588 5585 5585 5584 5587 5585 5581 5580 5578 5577 5576 5575 5575 5574 5574 5574 5575 5576 5577 5578 5579 5580 5581 5583 5584 5586 5588 5589 5591 5594 5595 5597 5598 5599
5588 5587 5586 5586 5586 5582 5581 5583 5582 5580 5578 5575 5573 5574 5577 5572 5570 5568 5566 5565 5563 5562 5562 5562 5561 5561 5561 5562 5563 5564 5565 5566 5568 5568 5569 5571 5573 5575 5577 5579 5580 5582 5583 5585
5579 5577 5575 5574 5574 5569 5570 5575 5571 5569 5568 5565 5563 5565 5564 5560 5559 5557 5555 5553 5551 5550 5550 5549 5549 5549 5549 5549 5550 5550 5551 5552 5554 5555 5556 5557 5559 5560 5562 5564 5566 5567 5569 5571
5569 5566 5563 5562 5561 5558 5565 5563 5560 5557 5556 5555 5553 5552 5551 5549 5547 5546 5543 5541 5539 5538 5537 5537 5536 5536 5536 5536 5537 5538 5539 5539 5540 5541 5542 5543 5544 5546 5547 5549 5551 5553 5555 5556
5559 5556 5553 5551 5547 5546 5552 5552 5549 5545 5545 5546 5542 5541 5539 5537 5535 5535 5531 5529 5528 5527 5525 5524 5524 5523 5523 5523 5523 5524 5525 5526 5527 5527 5528 5529 5530 5531 5533 5535 5537 5539 5541 5542
5549 5546 5544 5541 5537 5535 5543 5541 5537 5534 5533 5535 5531 5529 5527 5525 5523 5524 5520 5518 5517 5515 5514 5513 5512 5511 5510 5510 5510 5511 5512 5513 5514 5514 5515 5516 5516 5517 5519 5521 5523 5525 5527 5528
5538 5535 5534 5531 5526 5525 5533 5529 5525 5524 5525 5522 5519 5517 5515 5513 5511 5510 5508 5506 5504 5503 5502 5501 5500 5499 5498 5498 5498 5499 5499 5500 5500 5500 5501 5502 5503 5504 5506 5508 5509 5511 5513 5515
5526 5525 5524 5520 5516 5520 5521 5517 5515 5513 5512 5510 5507 5505 5504 5502 5499 5497 5495 5493 5492 5491 5490 5489 5488 5487 5486 5486 5486 5486 5487 5487 5487 5488 5489 5490 5491 5492 5493 5495 5496 5498 5499 5501
5515 5515 5512 5510 5510 5510 5508 5505 5503 5501 5499 5498 5495 5494 5492 5491 5489 5486 5484 5482 5480 5479 5478 5477 5476 5476 5475 5474 5474 5474 5475 5475 5475 5476 5476 5477 5478 5479 5480 5482 5483 5485 5486 5488
5505 5504 5500 5498 5499 5498 5496 5494 5493 5491 5488 5486 5484 5482 5481 5479 5477 5475 5473 5471 5469 5468 5467 5466 5465 5464 5464 5463 5463 5462 5463 5463 5463 5464 5464 5465 5466 5467 5468 5469 5470 5472 5473 5475
5494 5492 5488 5486 5488 5485 5485 5483 5481 5479 5477 5475 5473 5471 5469 5467 5465 5463 5461 5460 5458 5457 5456 5455 5454 5453 5452 5452 5451 5451 5451 5451 5452 5452 5453 5454 5454 5455 5456 5457 5458 5459 5461 5462
5484 5480 5476 5475 5476 5472 5472 5471 5468 5466 5465 5463 5461 5459 5457 5455 5453 5451 5450 5448 5447 5447 5446 5444 5443 5442 5442 5441 5441 5440 5440 5440 5441 5441 5442 5442 5443 5444 5444 5445 5447 5447 5449 5450